Find Kosmos-2539

NORAD ID: 44457 Int'l Des: 2019-048 Owner: VVKOV/VOENT Country: RU operational
HEOCIRCULARGSOGEO

Live Position

Loading 3D Globe...

About Kosmos-2539

Description loading...

Upcoming Passes

Passes for default location (London). Set your location on the main map for personalized predictions.

Altitude History

Loading altitude history...

Two-Line Element Set

1 44457U 19048A 26107.01332810 .00000089 00000-0 00000+0 0 9996
2 44457 0.0284 109.9840 0000394 296.1430 175.8360 1.00276768 24612
Epoch: Apr 17, 2026 • Age: 12 hours

Current Status

Altitude 35783.0 km
Velocity 3.07 km/s
Sub-Earth Point -0.01°S, 12.01°E
Launch Date Aug 5, 2019
Age 6.6 years
Type other

Technical Details

Classification Payload
Mass 3162.00 kg
Dry Mass 2000.00 kg
Total Mass 3162.00 kg
Length 6.00 m
Diameter 2.00 m
Span 27.00 m
Shape Cyl + 2 Pan
Manufacturer RESH
Bus Type Ekspress-2000
Phase Status In Orbit
Owner/State VVKOV/VOENT/RU

Most Searched